Location: Slanting_Bridge
(35.6330°N, 80.9830°W)
Time: 10:32:47
(UTC-04:00)

Hamsat - Visible Passes

Search period start: 25 October 2014 00:00
Search period end: 03 November 2014 23:00
Orbit: 592 x 629 km, 97.6° (Epoch: 24 October)

Date Brightness Start Highest point End Pass type
(mag) Time Alt. Az. Time Alt. Az. Time Alt. Az.
25 Oct ? 06:24:26 10° NE 06:27:41 22° E 06:30:57 10° SE visible
26 Oct ? 06:38:18 10° NNE 06:42:04 32° E 06:45:51 10° SSE visible
26 Oct ? 19:04:18 10° SSW 19:08:08 34° W 19:11:58 10° NNW visible
27 Oct ? 06:52:21 10° NNE 06:56:25 48° E 07:00:30 10° S visible
27 Oct ? 19:19:08 10° SSW 19:22:30 23° W 19:25:51 10° NW visible
28 Oct ? 07:06:31 10° NNE 07:10:44 73° ESE 07:14:58 10° S visible
28 Oct ? 19:34:19 10° SW 19:36:53 16° W 19:39:27 10° NW visible
29 Oct ? 19:50:35 10° W 19:51:17 10° W 19:51:59 10° W visible
30 Oct ? 06:01:44 10° ENE 06:03:05 11° E 06:04:26 10° ESE visible
31 Oct ? 06:14:42 10° NE 06:17:29 17° E 06:20:16 10° SE visible
01 Nov ? 06:28:20 10° NE 06:31:50 25° E 06:35:21 10° SSE visible
01 Nov ? 18:53:52 10° S 18:57:52 44° W 19:01:53 10° NNW visible
02 Nov ? 05:42:13 10° NNE 05:46:09 37° E 05:50:06 10° SSE visible
02 Nov ? 18:08:30 10° SSW 18:12:10 30° W 18:15:51 10° NW visible
03 Nov ? 05:56:16 10° NNE 06:00:26 55° E 06:04:38 10° S visible
03 Nov ? 18:23:23 10° SW 18:26:29 20° W 18:29:36 10° NW visible
